[Date Prev][Date Next][Thread Prev][Thread Next] - [Date Index][Thread Index][Author Index]
2 Line ISS Keps 5-14
- Subject: [sarex] 2 Line ISS Keps 5-14
- From: "Dave Larsen PhD" <doc@xxxxxxxxxxx>
- Date: Wed, 14 May 2003 02:16:17 -0700
ISS
1 25544U 98067A 03134.26156609 .00009811 00000-0 12868-3 0 73
2 25544 51.6315 190.7170 0006276 113.2530 291.5757 15.59246891255710
----
Via the sarex mailing list at AMSAT.ORG courtesy of AMSAT-NA.
To unsubscribe, send "unsubscribe sarex" to Majordomo@amsat.org
AMSAT Home